This is the latest recevied weather packets stored in our database for station/object KD8OZS. If no packets are shown the sender has not sent any weather packets the latest 10 day(s).
| Time | Temp. | Humidity | Pressure | Rain* | Wind** | Luminosity | Snow |
|---|---|---|---|---|---|---|---|
| 1788093903 | 18.33° C | 99% | 1013.2 hPa | 0 mm | - | 123 W/m² | - |
| 1788093599 | 18.33° C | 99% | 1013.3 hPa | 0 mm | - | 94 W/m² | - |
| 1788093296 | 17.78° C | 99% | 1013.4 hPa | 0 mm | - | 96 W/m² | - |
| 1788092994 | 17.22° C | 99% | 1013.3 hPa | 0 mm | - | 98 W/m² | - |
| 1788092693 | 17.22° C | 99% | 1013.5 hPa | 0 mm | - | 71 W/m² | - |
| 1788092388 | 17.22° C | 99% | 1013.6 hPa | 0 mm | - | 58 W/m² | - |
| 1788092083 | 16.67° C | 99% | 1013.3 hPa | 0 mm | - | 50 W/m² | - |
| 1788091778 | 16.67° C | 99% | 1013.2 hPa | 0 mm | - | 41 W/m² | - |
| 1788091473 | 16.67° C | 99% | 1013.5 hPa | 0 mm | - | 35 W/m² | - |
| 1788091170 | 16.67° C | 99% | 1013.4 hPa | 0 mm | - | 32 W/m² | - |
| 1788090866 | 16.67° C | 99% | 1013.5 hPa | 0 mm | - | 28 W/m² | - |
| 1788090561 | 16.67° C | 99% | 1013.4 hPa | 0 mm | - | 28 W/m² | - |
| 1788090258 | 16.67° C | 99% | 1013.5 hPa | 0 mm | - | 31 W/m² | - |
| 1788089957 | 16.11° C | 99% | 1013.5 hPa | 0 mm | - | 29 W/m² | - |
| 1788089652 | 16.11° C | 99% | 1013.4 hPa | 0 mm | - | 18 W/m² | - |
| 1788089348 | 16.11° C | 99% | 1013.6 hPa | 0 mm | - | 14 W/m² | - |
| 1788089043 | 16.11° C | 99% | 1013.4 hPa | 0 mm | - | 15 W/m² | - |
| 1788088740 | 16.11° C | 99% | 1013.2 hPa | 0 mm | - | 13 W/m² | - |
| 1788088435 | 16.11° C | 99% | 1013.6 hPa | 0 mm | - | 10 W/m² | - |
| 1788088130 | 16.11° C | 99% | 1013.2 hPa | 0 mm | - | 7 W/m² | - |
| 1788087826 | 16.11° C | 99% | 1013.2 hPa | 0 mm | - | 2 W/m² | - |
| 1788087524 | 16.11° C | 99% | 1013.1 hPa | 0 mm | - | 0 W/m² | - |
| 1788087222 | 16.11° C | 99% | 1013.3 hPa | 0 mm | - | 0 W/m² | - |
| 1788086917 | 16.11° C | 99% | 1013.3 hPa | 0 mm | - | 0 W/m² | - |
| 1788086614 | 16.11° C | 99% | 1013.1 hPa | 0 mm | - | 0 W/m² | - |
* Rain latest hour (hover to see other rain measurements)
** Current wind speed in m/s (hover to see current wind gust speed)